Time,TemperatureF,DewpointF,PressureIn,WindDirection,WindDirectionDegrees,WindSpeedMPH,WindSpeedGustMPH,Humidity,HourlyPrecipIn,Conditions,Clouds,dailyrainin,SoftwareType,DateUTC
2013-02-23 00:14:00,54.7,54.1,29.80,ENE,67,2.2,-999.0,98,-99.99,,,0.00,Acu-Link.com,2013-02-23 06:14:00,
2013-02-23 00:29:00,54.9,54.3,29.80,NNW,337,2.7,-999.0,98,-99.99,,,0.00,Acu-Link.com,2013-02-23 06:29:00,
2013-02-23 00:44:00,54.9,54.3,29.78,ENE,67,2.2,-999.0,98,-99.99,,,0.00,Acu-Link.com,2013-02-23 06:44:00,
2013-02-23 00:59:00,54.7,54.1,29.81,NW,315,0.0,-999.0,98,-99.99,,,0.00,Acu-Link.com,2013-02-23 06:59:00,
2013-02-23 01:14:00,54.7,54.1,29.80,NNE,22,2.7,-999.0,98,-99.99,,,0.00,Acu-Link.com,2013-02-23 07:14:00,
2013-02-23 01:29:00,54.7,54.1,29.82,NNE,22,0.0,-999.0,98,-99.99,,,0.00,Acu-Link.com,2013-02-23 07:29:00,
2013-02-23 01:44:00,54.7,54.1,29.77,ESE,112,3.7,-999.0,98,-99.99,,,0.00,Acu-Link.com,2013-02-23 07:44:00,
2013-02-23 01:59:00,54.5,53.9,29.78,NW,315,3.7,-999.0,98,-99.99,,,0.00,Acu-Link.com,2013-02-23 07:59:00,
2013-02-23 02:14:00,54.7,54.1,29.79,NNW,337,2.7,-999.0,98,-99.99,,,0.00,Acu-Link.com,2013-02-23 08:14:00,
2013-02-23 02:30:00,54.7,54.1,29.81,NE,45,0.0,-999.0,98,-99.99,,,0.00,Acu-Link.com,2013-02-23 08:30:00,
2013-02-23 02:45:00,54.7,54.1,29.77,NW,315,5.3,-999.0,98,-99.99,,,0.00,Acu-Link.com,2013-02-23 08:45:00,
2013-02-23 03:00:00,54.7,54.1,29.79,NE,45,3.7,-999.0,98,-99.99,,,0.00,Acu-Link.com,2013-02-23 09:00:00,
2013-02-23 03:20:00,54.7,54.1,29.79,North,0,2.7,-999.0,98,-99.99,,,0.00,Acu-Link.com,2013-02-23 09:20:00,
2013-02-23 03:35:00,54.9,54.3,29.79,NE,45,1.1,-999.0,98,-99.99,,,0.00,Acu-Link.com,2013-02-23 09:35:00,
2013-02-23 03:50:00,54.9,54.3,29.80,NNW,337,3.2,-999.0,98,-99.99,,,0.00,Acu-Link.com,2013-02-23 09:50:00,
2013-02-23 04:05:00,54.9,54.3,29.80,ESE,112,0.0,-999.0,98,-99.99,,,0.00,Acu-Link.com,2013-02-23 10:05:00,
2013-02-23 04:20:00,54.3,53.7,29.78,NE,45,2.2,-999.0,98,-99.99,,,0.00,Acu-Link.com,2013-02-23 10:20:00,
2013-02-23 04:35:00,54.1,53.5,29.77,North,0,2.7,-999.0,98,-99.99,,,0.00,Acu-Link.com,2013-02-23 10:35:00,
2013-02-23 04:51:00,53.8,53.2,29.76,NNE,22,0.0,-999.0,98,-99.99,,,0.00,Acu-Link.com,2013-02-23 10:51:00,
2013-02-23 05:06:00,53.4,52.8,29.79,NNW,337,0.0,-999.0,98,-99.99,,,0.00,Acu-Link.com,2013-02-23 11:06:00,
2013-02-23 05:21:00,53.2,52.6,29.80,NNE,22,1.1,-999.0,98,-99.99,,,0.00,Acu-Link.com,2013-02-23 11:21:00,
2013-02-23 05:36:00,53.2,52.6,29.78,NNE,22,0.0,-999.0,98,-99.99,,,0.00,Acu-Link.com,2013-02-23 11:36:00,
2013-02-23 05:51:00,53.1,52.5,29.76,NE,45,3.2,-999.0,98,-99.99,,,0.00,Acu-Link.com,2013-02-23 11:51:00,
2013-02-23 06:06:00,52.9,52.4,29.78,North,0,3.2,-999.0,98,-99.99,,,0.00,Acu-Link.com,2013-02-23 12:06:00,
2013-02-23 06:21:00,53.1,52.5,29.76,East,90,3.2,-999.0,98,-99.99,,,0.00,Acu-Link.com,2013-02-23 12:21:00,
2013-02-23 06:36:00,53.1,52.5,29.76,NE,45,4.2,-999.0,98,-99.99,,,0.00,Acu-Link.com,2013-02-23 12:36:00,
2013-02-23 06:51:00,53.2,52.6,29.79,NNE,22,4.2,-999.0,98,-99.99,,,0.00,Acu-Link.com,2013-02-23 12:51:00,
2013-02-23 07:07:00,53.6,53.0,29.81,WNW,292,2.7,-999.0,98,-99.99,,,0.00,Acu-Link.com,2013-02-23 13:07:00,
2013-02-23 07:22:00,53.8,53.2,29.80,NNE,22,3.7,-999.0,98,-99.99,,,0.00,Acu-Link.com,2013-02-23 13:22:00,
2013-02-23 07:37:00,53.8,53.2,29.84,NNE,22,2.7,-999.0,98,-99.99,,,0.00,Acu-Link.com,2013-02-23 13:37:00,
2013-02-23 07:52:00,54.0,53.4,29.82,NNE,22,1.7,-999.0,98,-99.99,,,0.00,Acu-Link.com,2013-02-23 13:52:00,
2013-02-23 08:07:00,54.3,53.7,29.83,NE,45,5.3,-999.0,98,-99.99,,,0.00,Acu-Link.com,2013-02-23 14:07:00,
2013-02-23 08:22:00,54.7,54.1,29.86,NNE,22,4.2,-999.0,98,-99.99,,,0.00,Acu-Link.com,2013-02-23 14:22:00,
2013-02-23 08:37:00,54.9,54.3,29.86,ENE,67,2.2,-999.0,98,-99.99,,,0.00,Acu-Link.com,2013-02-23 14:37:00,
2013-02-23 08:52:00,55.2,54.6,29.81,NNE,22,5.8,-999.0,98,-99.99,,,0.01,Acu-Link.com,2013-02-23 14:52:00,
2013-02-23 09:07:00,55.8,55.2,29.83,NNW,337,1.7,-999.0,98,-99.99,,,0.01,Acu-Link.com,2013-02-23 15:07:00,
2013-02-23 09:22:00,55.9,55.3,29.84,NNE,22,4.7,-999.0,98,-99.99,,,0.01,Acu-Link.com,2013-02-23 15:22:00,
2013-02-23 09:38:00,55.9,55.3,29.82,NE,45,1.7,-999.0,98,-99.99,,,0.01,Acu-Link.com,2013-02-23 15:38:00,
2013-02-23 09:53:00,56.5,55.9,29.83,NW,315,1.7,-999.0,98,-99.99,,,0.01,Acu-Link.com,2013-02-23 15:53:00,
2013-02-23 10:08:00,56.7,56.1,29.84,NNW,337,2.2,-999.0,98,-99.99,,,0.01,Acu-Link.com,2013-02-23 16:08:00,
2013-02-23 10:23:00,56.8,56.2,29.84,ESE,112,2.7,-999.0,98,-99.99,,,0.01,Acu-Link.com,2013-02-23 16:23:00,
2013-02-23 10:38:00,57.2,56.6,29.81,NW,315,5.3,-999.0,98,-99.99,,,0.01,Acu-Link.com,2013-02-23 16:38:00,
2013-02-23 10:53:00,57.2,56.6,29.79,East,90,2.7,-999.0,98,-99.99,,,0.01,Acu-Link.com,2013-02-23 16:53:00,
2013-02-23 11:08:00,57.2,56.6,29.82,NNE,22,3.2,-999.0,98,-99.99,,,0.01,Acu-Link.com,2013-02-23 17:08:00,
2013-02-23 11:23:00,57.4,56.8,29.81,ESE,112,2.2,-999.0,98,-99.99,,,0.01,Acu-Link.com,2013-02-23 17:23:00,
2013-02-23 11:38:00,57.4,56.6,29.80,NNW,337,4.2,-999.0,97,-99.99,,,0.01,Acu-Link.com,2013-02-23 17:38:00,
2013-02-23 11:54:00,57.4,56.8,29.80,NNE,22,2.2,-999.0,98,-99.99,,,0.01,Acu-Link.com,2013-02-23 17:54:00,
2013-02-23 12:09:00,57.9,57.1,29.79,NNW,337,4.7,-999.0,97,-99.99,,,0.01,Acu-Link.com,2013-02-23 18:09:00,
2013-02-23 12:24:00,58.1,57.3,29.76,East,90,1.7,-999.0,97,-99.99,,,0.01,Acu-Link.com,2013-02-23 18:24:00,
2013-02-23 12:39:00,59.4,57.7,29.75,North,0,1.1,-999.0,94,-99.99,,,0.01,Acu-Link.com,2013-02-23 18:39:00,
2013-02-23 12:54:00,59.2,57.2,29.79,South,180,0.0,-999.0,93,-99.99,,,0.01,Acu-Link.com,2013-02-23 18:54:00,
2013-02-23 13:09:00,59.7,57.4,29.79,NNW,337,1.7,-999.0,92,-99.99,,,0.01,Acu-Link.com,2013-02-23 19:09:00,
2013-02-23 13:24:00,61.0,58.0,29.78,SSW,202,0.0,-999.0,90,-99.99,,,0.01,Acu-Link.com,2013-02-23 19:24:00,
2013-02-23 13:39:00,61.0,58.0,29.78,ENE,67,0.0,-999.0,90,-99.99,,,0.01,Acu-Link.com,2013-02-23 19:39:00,
2013-02-23 13:54:00,61.0,58.0,29.77,West,270,2.7,-999.0,90,-99.99,,,0.01,Acu-Link.com,2013-02-23 19:54:00,
2013-02-23 14:10:00,62.1,58.8,29.72,North,0,3.2,-999.0,89,-99.99,,,0.01,Acu-Link.com,2013-02-23 20:10:00,
2013-02-23 14:25:00,61.3,58.3,29.72,NNE,22,5.3,-999.0,90,-99.99,,,0.01,Acu-Link.com,2013-02-23 20:25:00,
2013-02-23 14:40:00,61.5,58.5,29.74,NNE,22,3.7,-999.0,90,-99.99,,,0.01,Acu-Link.com,2013-02-23 20:40:00,
2013-02-23 14:55:00,61.7,58.4,29.75,NNW,337,1.7,-999.0,89,-99.99,,,0.01,Acu-Link.com,2013-02-23 20:55:00,
2013-02-23 15:10:00,61.5,58.2,29.74,WNW,292,2.7,-999.0,89,-99.99,,,0.01,Acu-Link.com,2013-02-23 21:10:00,
2013-02-23 15:25:00,62.1,58.5,29.72,North,0,3.2,-999.0,88,-99.99,,,0.01,Acu-Link.com,2013-02-23 21:25:00,
2013-02-23 15:40:00,62.1,58.5,29.75,NNE,22,2.7,-999.0,88,-99.99,,,0.01,Acu-Link.com,2013-02-23 21:40:00,
2013-02-23 15:55:00,62.4,58.5,29.75,NW,315,4.7,-999.0,87,-99.99,,,0.01,Acu-Link.com,2013-02-23 21:55:00,
2013-02-23 16:10:00,62.6,58.7,29.74,North,0,3.2,-999.0,87,-99.99,,,0.01,Acu-Link.com,2013-02-23 22:10:00,
2013-02-23 16:26:00,62.8,58.5,29.76,NNW,337,4.2,-999.0,86,-99.99,,,0.01,Acu-Link.com,2013-02-23 22:26:00,
2013-02-23 16:41:00,63.3,59.0,29.76,WNW,292,1.7,-999.0,86,-99.99,,,0.01,Acu-Link.com,2013-02-23 22:41:00,
2013-02-23 16:56:00,63.1,58.5,29.73,NNE,22,2.2,-999.0,85,-99.99,,,0.01,Acu-Link.com,2013-02-23 22:56:00,
2013-02-23 17:11:00,63.9,58.6,29.76,NW,315,3.7,-999.0,83,-99.99,,,0.01,Acu-Link.com,2013-02-23 23:11:00,
2013-02-23 17:26:00,64.2,58.9,29.76,NNE,22,2.2,-999.0,83,-99.99,,,0.01,Acu-Link.com,2013-02-23 23:26:00,
2013-02-23 17:41:00,63.7,58.1,29.72,ENE,67,1.7,-999.0,82,-99.99,,,0.01,Acu-Link.com,2013-02-23 23:41:00,
2013-02-23 17:56:00,62.2,57.6,29.73,NW,315,0.0,-999.0,85,-99.99,,,0.01,Acu-Link.com,2013-02-23 23:56:00,
2013-02-23 18:11:00,60.4,57.1,29.76,NNE,22,0.0,-999.0,89,-99.99,,,0.01,Acu-Link.com,2013-02-24 00:11:00,
2013-02-23 18:26:00,59.2,56.6,29.76,NNW,337,0.0,-999.0,91,-99.99,,,0.01,Acu-Link.com,2013-02-24 00:26:00,
2013-02-23 18:42:00,57.7,56.0,29.77,West,270,0.0,-999.0,94,-99.99,,,0.01,Acu-Link.com,2013-02-24 00:42:00,
2013-02-23 18:57:00,56.7,55.9,29.79,NE,45,0.0,-999.0,97,-99.99,,,0.01,Acu-Link.com,2013-02-24 00:57:00,
2013-02-23 19:12:00,55.6,55.0,29.79,NE,45,0.0,-999.0,98,-99.99,,,0.01,Acu-Link.com,2013-02-24 01:12:00,
2013-02-23 19:27:00,55.0,54.4,29.80,NNW,337,0.0,-999.0,98,-99.99,,,0.01,Acu-Link.com,2013-02-24 01:27:00,
2013-02-23 19:42:00,54.1,53.5,29.80,North,0,0.0,-999.0,98,-99.99,,,0.01,Acu-Link.com,2013-02-24 01:42:00,
2013-02-23 19:57:00,53.4,52.8,29.79,West,270,0.0,-999.0,98,-99.99,,,0.01,Acu-Link.com,2013-02-24 01:57:00,
2013-02-23 20:12:00,52.7,52.2,29.81,West,270,0.0,-999.0,98,-99.99,,,0.01,Acu-Link.com,2013-02-24 02:12:00,
2013-02-23 20:27:00,52.2,51.7,29.79,ESE,112,0.0,-999.0,98,-99.99,,,0.01,Acu-Link.com,2013-02-24 02:27:00,
2013-02-23 20:42:00,52.2,51.7,29.82,NW,315,0.0,-999.0,98,-99.99,,,0.01,Acu-Link.com,2013-02-24 02:42:00,
2013-02-23 20:58:00,51.6,51.1,29.79,West,270,0.0,-999.0,98,-99.99,,,0.01,Acu-Link.com,2013-02-24 02:58:00,
2013-02-23 21:13:00,51.6,51.1,29.80,NW,315,0.0,-999.0,98,-99.99,,,0.01,Acu-Link.com,2013-02-24 03:13:00,
2013-02-23 21:28:00,52.0,51.5,29.83,NW,315,1.1,-999.0,98,-99.99,,,0.01,Acu-Link.com,2013-02-24 03:28:00,
2013-02-23 21:43:00,52.9,52.4,29.84,North,0,1.7,-999.0,98,-99.99,,,0.01,Acu-Link.com,2013-02-24 03:43:00,
2013-02-23 21:58:00,53.2,52.6,29.84,NNE,22,1.7,-999.0,98,-99.99,,,0.01,Acu-Link.com,2013-02-24 03:58:00,
2013-02-23 22:13:00,53.2,52.6,29.84,NNE,22,3.2,-999.0,98,-99.99,,,0.01,Acu-Link.com,2013-02-24 04:13:00,
2013-02-23 22:28:00,53.6,53.0,29.82,NNW,337,5.3,-999.0,98,-99.99,,,0.01,Acu-Link.com,2013-02-24 04:28:00,
2013-02-23 22:43:00,53.8,53.2,29.83,NE,45,3.2,-999.0,98,-99.99,,,0.01,Acu-Link.com,2013-02-24 04:43:00,
2013-02-23 22:58:00,53.8,53.2,29.83,NW,315,4.7,-999.0,98,-99.99,,,0.01,Acu-Link.com,2013-02-24 04:58:00,
2013-02-23 23:14:00,53.4,52.8,29.82,North,0,2.7,-999.0,98,-99.99,,,0.01,Acu-Link.com,2013-02-24 05:14:00,
2013-02-23 23:29:00,52.9,52.4,29.83,NE,45,4.2,-999.0,98,-99.99,,,0.01,Acu-Link.com,2013-02-24 05:29:00,
2013-02-23 23:44:00,52.7,52.2,29.80,NE,45,2.7,-999.0,98,-99.99,,,0.01,Acu-Link.com,2013-02-24 05:44:00,
2013-02-23 23:59:00,52.3,51.8,29.80,North,0,2.7,-999.0,98,-99.99,,,0.01,Acu-Link.com,2013-02-24 05:59:00,